| time (UTC) | temp C | wind direction | speed KPH | gust KPH | rain 1hr cm | rain 24hr cm | rain mn cm | humidity % | barometer mb |
| 20260507123030 | 12 | 323 | 4.8 | 9.7 | 0.00 | 0.36 | 0.03 | 81 | 1013.6 |
| 20260507122026 | 12 | 345 | 4.8 | 11.3 | 0.00 | 0.36 | 0.03 | 81 | 1013.6 |
| 20260507121023 | 12 | 311 | 4.8 | 11.3 | 0.00 | 0.36 | 0.03 | 81 | 1013.7 |
| 20260507120023 | 12 | 339 | 6.4 | 12.9 | 0.00 | 0.36 | 0.03 | 81 | 1013.7 |
| 20260507115019 | 13 | 338 | 6.4 | 12.9 | 0.00 | 0.36 | 0.03 | 73 | 1013.6 |
| 20260507114113 | 14 | 172 | 3.2 | 11.3 | 0.00 | 0.36 | 0.03 | 69 | 1013.5 |
| 20260507113110 | 14 | 149 | 4.8 | 11.3 | 0.00 | 0.36 | 0.03 | 70 | 1013.5 |
| 20260507112109 | 14 | 182 | 3.2 | 11.3 | 0.00 | 0.36 | 0.03 | 72 | 1013.5 |
| 20260507111103 | 13 | 204 | 4.8 | 12.9 | 0.00 | 0.36 | 0.03 | 71 | 1013.5 |
| 20260507110059 | 13 | 146 | 4.8 | 9.7 | 0.00 | 0.36 | 0.03 | 73 | 1013.6 |
| 20260507105056 | 13 | 172 | 4.8 | 11.3 | 0.00 | 0.36 | 0.03 | 74 | 1013.8 |
| 20260507104052 | 13 | 160 | 3.2 | 11.3 | 0.00 | 0.36 | 0.03 | 77 | 1013.7 |
| 20260507103049 | 12 | 237 | 3.2 | 9.7 | 0.00 | 0.36 | 0.03 | 78 | 1013.8 |
| 20260507102045 | 12 | 223 | 3.2 | 12.9 | 0.00 | 0.36 | 0.03 | 77 | 1013.7 |
| 20260507101042 | 12 | 212 | 1.6 | 6.4 | 0.00 | 0.36 | 0.03 | 77 | 1013.8 |
| 20260507100041 | 12 | 237 | 1.6 | 9.7 | 0.00 | 0.36 | 0.03 | 81 | 1013.8 |
| 20260507095038 | 12 | 138 | 3.2 | 6.4 | 0.00 | 0.36 | 0.03 | 81 | 1013.7 |
| 20260507094031 | 11 | 217 | 3.2 | 6.4 | 0.00 | 0.36 | 0.03 | 85 | 1013.8 |
| 20260507093029 | 11 | 158 | 1.6 | 9.7 | 0.00 | 0.36 | 0.03 | 87 | 1013.6 |
| 20260507092024 | 10 | 142 | 3.2 | 6.4 | 0.00 | 0.36 | 0.03 | 87 | 1013.6 |
| 20260507091020 | 11 | 137 | 3.2 | 11.3 | 0.00 | 0.36 | 0.03 | 87 | 1013.5 |
| 20260507090020 | 10 | 184 | 1.6 | 6.4 | 0.03 | 0.36 | 0.03 | 90 | 1013.5 |
| 20260507085114 | 10 | 184 | 1.6 | 6.4 | 0.03 | 0.36 | 0.03 | 92 | 1013.5 |
| 20260507084113 | 9 | 186 | 1.6 | 6.4 | 0.03 | 0.36 | 0.03 | 94 | 1013.4 |
| 20260507083107 | 9 | 180 | 3.2 | 6.4 | 0.03 | 0.36 | 0.03 | 93 | 1013.3 |
| 20260507082103 | 9 | 198 | 1.6 | 6.4 | 0.03 | 0.36 | 0.03 | 94 | 1013.4 |
| 20260507081100 | 9 | 244 | 3.2 | 6.4 | 0.03 | 0.36 | 0.03 | 93 | 1013.3 |
| 20260507080056 | 9 | 166 | 1.6 | 3.2 | 0.00 | 0.33 | 0.00 | 93 | 1013.2 |
| 20260507075053 | 9 | 227 | 1.6 | 6.4 | 0.00 | 0.33 | 0.00 | 92 | 1013.2 |
| 20260507074053 | 10 | 243 | 3.2 | 11.3 | 0.00 | 0.33 | 0.00 | 91 | 1013.0 |
| 20260507073049 | 10 | 237 | 3.2 | 6.4 | 0.00 | 0.33 | 0.00 | 91 | 1013.0 |
| 20260507072042 | 9 | 180 | 1.6 | 3.2 | 0.00 | 0.33 | 0.00 | 94 | 1012.9 |
| 20260507071039 | 8 | 225 | 1.6 | 6.4 | 0.00 | 0.33 | 0.00 | 94 | 1012.8 |
| 20260507070036 | 8 | 208 | 3.2 | 9.7 | 0.00 | 0.33 | 0.00 | 92 | 1012.7 |
| 20260507065032 | 9 | 189 | 3.2 | 12.9 | 0.00 | 0.33 | 0.00 | 91 | 1012.6 |
| 20260507064028 | 9 | 159 | 1.6 | 6.4 | 0.00 | 0.33 | 0.00 | 89 | 1012.4 |
| 20260507063025 | 9 | 207 | 3.2 | 12.9 | 0.00 | 0.33 | 0.00 | 90 | 1012.6 |
| 20260507062024 | 9 | 322 | 3.2 | 12.9 | 0.00 | 0.33 | 0.00 | 89 | 1012.3 |
| 20260507061021 | 9 | 317 | 3.2 | 6.4 | 0.00 | 0.33 | 0.00 | 90 | 1012.2 |
| 20260507060118 | 9 | 168 | 3.2 | 11.3 | 0.00 | 0.33 | 0.00 | 90 | 1012.2 |
| 20260507055111 | 8 | 196 | 3.2 | 9.7 | 0.00 | 0.33 | 0.00 | 91 | 1012.1 |
| 20260507054112 | 8 | 144 | 3.2 | 6.4 | 0.00 | 0.33 | 0.00 | 91 | 1012.1 |
| 20260507053105 | 8 | 203 | 1.6 | 6.4 | 0.00 | 0.33 | 0.00 | 92 | 1012.0 |
| 20260507052101 | 8 | 257 | 3.2 | 9.7 | 0.00 | 0.33 | 0.00 | 92 | 1011.8 |
| 20260507051101 | 8 | 249 | 3.2 | 9.7 | 0.00 | 0.33 | 0.00 | 93 | 1011.7 |
| 20260507050054 | 8 | 100 | 1.6 | 6.4 | 0.00 | 0.33 | 0.00 | 93 | 1011.6 |
| 20260507045054 | 8 | 201 | 1.6 | 6.4 | 0.00 | 0.33 | 0.00 | 93 | 1011.4 |
| 20260507044050 | 8 | 199 | 1.6 | 11.3 | 0.00 | 0.33 | 0.00 | 92 | 1011.3 |
| 20260507043047 | 7 | 219 | 3.2 | 6.4 | 0.00 | 0.33 | 0.00 | 93 | 1011.3 |
| 20260507042049 | 7 | 218 | 1.6 | 11.3 | 0.00 | 0.33 | 0.00 | 94 | 1011.1 |
| 20260507041041 | 7 | 101 | 1.6 | 6.4 | 0.00 | 0.33 | 0.00 | 94 | 1011.0 |
| 20260507040037 | 7 | 135 | 0.0 | 3.2 | 0.00 | 0.33 | 0.00 | 93 | 1010.8 |
| 20260507035033 | 7 | 224 | 0.0 | 3.2 | 0.00 | 0.33 | 0.00 | 93 | 1010.8 |
| 20260507034027 | 7 | 191 | 1.6 | 6.4 | 0.00 | 0.33 | 0.00 | 93 | 1010.7 |
| 20260507033027 | 7 | 225 | 0.0 | 3.2 | 0.00 | 0.33 | 0.00 | 92 | 1010.6 |
| 20260507032020 | 7 | 135 | 1.6 | 6.4 | 0.00 | 0.33 | 0.00 | 92 | 1010.6 |
| 20260507031017 | 7 | 198 | 1.6 | 6.4 | 0.00 | 0.33 | 0.00 | 91 | 1010.8 |
| 20260507030113 | 8 | 256 | 1.6 | 6.4 | 0.00 | 0.33 | 0.00 | 90 | 1010.7 |
| 20260507025110 | 8 | 194 | 1.6 | 11.3 | 0.00 | 0.33 | 0.00 | 90 | 1010.6 |
| 20260507024110 | 8 | 166 | 1.6 | 9.7 | 0.00 | 0.33 | 0.00 | 90 | 1010.6 |
| 20260507023103 | 8 | 118 | 1.6 | 6.4 | 0.00 | 0.33 | 0.00 | 90 | 1010.6 |
| 20260507022103 | 8 | 334 | 1.6 | 6.4 | 0.00 | 0.33 | 0.00 | 91 | 1010.5 |
| 20260507021059 | 8 | 248 | 1.6 | 9.7 | 0.00 | 0.33 | 0.00 | 92 | 1010.6 |
| 20260507020053 | 7 | 202 | 3.2 | 6.4 | 0.00 | 0.33 | 0.00 | 94 | 1010.5 |
| 20260507015049 | 7 | 171 | 1.6 | 3.2 | 0.00 | 0.33 | 0.00 | 95 | 1010.6 |
| 20260507014046 | 7 | 158 | 0.0 | 3.2 | 0.00 | 0.33 | 0.00 | 95 | 1010.4 |
| 20260507013043 | 7 | 0.0 | 3.2 | 0.00 | 0.33 | 0.00 | 96 | 1010.5 | |
| 20260507012039 | 7 | 135 | 0.0 | 3.2 | 0.00 | 0.33 | 0.00 | 97 | 1010.5 |
| 20260507011039 | 6 | 0.0 | 3.2 | 0.00 | 0.33 | 0.00 | 97 | 1010.4 | |
| 20260507010036 | 6 | 158 | 0.0 | 6.4 | 0.00 | 0.33 | 0.00 | 97 | 1010.5 |
| 20260507005058 | 6 | 0.0 | 3.2 | 0.00 | 0.33 | 0.00 | 97 | 1010.4 | |
| 20260507004055 | 6 | 0.0 | 3.2 | 0.00 | 0.33 | 0.00 | 97 | 1010.2 | |
| 20260507003052 | 7 | 0.0 | 3.2 | 0.00 | 0.33 | 0.00 | 96 | 1010.4 | |
| 20260507002048 | 7 | 147 | 0.0 | 6.4 | 0.00 | 0.33 | 0.00 | 96 | 1010.3 |
| 20260507001045 | 7 | 135 | 1.6 | 6.4 | 0.00 | 0.33 | 0.00 | 96 | 1010.3 |
| 20260507000041 | 7 | 225 | 0.0 | 3.2 | 0.00 | 0.33 | 0.00 | 95 | 1010.4 |
| 20260506235037 | 7 | 0.0 | 3.2 | 0.00 | 0.33 | 0.00 | 95 | 1010.5 | |
| 20260506234034 | 7 | 135 | 0.0 | 3.2 | 0.00 | 0.33 | 0.00 | 95 | 1010.5 |
| 20260506233031 | 7 | 203 | 0.0 | 3.2 | 0.00 | 0.33 | 0.00 | 94 | 1010.4 |
| 20260506232028 | 8 | 182 | 1.6 | 6.4 | 0.00 | 0.33 | 0.00 | 93 | 1010.2 |
| 20260506231026 | 8 | 218 | 1.6 | 3.2 | 0.00 | 0.33 | 0.00 | 93 | 1010.2 |
| 20260506230023 | 8 | 171 | 1.6 | 6.4 | 0.00 | 0.33 | 0.00 | 93 | 1010.2 |
| 20260506225020 | 8 | 126 | 1.6 | 6.4 | 0.00 | 0.33 | 0.00 | 93 | 1010.2 |
| 20260506224113 | 8 | 174 | 0.0 | 3.2 | 0.00 | 0.33 | 0.00 | 93 | 1010.2 |
| 20260506223110 | 8 | 180 | 0.0 | 3.2 | 0.00 | 0.33 | 0.00 | 93 | 1010.1 |
| 20260506222107 | 8 | 203 | 0.0 | 3.2 | 0.00 | 0.33 | 0.00 | 93 | 1010.0 |
| 20260506221103 | 8 | 140 | 1.6 | 6.4 | 0.00 | 0.33 | 0.00 | 93 | 1009.9 |
| 20260506220059 | 8 | 159 | 1.6 | 6.4 | 0.00 | 0.33 | 0.00 | 92 | 1010.0 |
| 20260506215056 | 8 | 181 | 1.6 | 6.4 | 0.00 | 0.33 | 0.33 | 92 | 1009.9 |
| 20260506214052 | 8 | 158 | 0.0 | 3.2 | 0.00 | 0.33 | 0.33 | 92 | 1009.8 |
| 20260506213049 | 8 | 174 | 1.6 | 3.2 | 0.00 | 0.33 | 0.33 | 91 | 1009.9 |
| 20260506212046 | 8 | 187 | 1.6 | 6.4 | 0.00 | 0.33 | 0.33 | 91 | 1009.9 |
| 20260506211042 | 8 | 164 | 1.6 | 6.4 | 0.00 | 0.33 | 0.33 | 91 | 1009.7 |
| 20260506210042 | 8 | 216 | 1.6 | 6.4 | 0.00 | 0.33 | 0.33 | 92 | 1009.8 |
| 20260506205036 | 8 | 249 | 1.6 | 11.3 | 0.00 | 0.33 | 0.33 | 92 | 1009.7 |
| 20260506204032 | 8 | 243 | 1.6 | 6.4 | 0.00 | 0.33 | 0.33 | 92 | 1009.7 |
| 20260506203029 | 8 | 217 | 1.6 | 3.2 | 0.00 | 0.33 | 0.33 | 92 | 1009.6 |
| 20260506202028 | 8 | 207 | 1.6 | 6.4 | 0.00 | 0.33 | 0.33 | 91 | 1009.6 |
| 20260506201021 | 8 | 196 | 1.6 | 6.4 | 0.00 | 0.33 | 0.33 | 91 | 1009.5 |
| 20260506200018 | 9 | 188 | 1.6 | 6.4 | 0.00 | 0.38 | 0.33 | 90 | 1009.3 |
| 20260506195115 | 8 | 175 | 1.6 | 6.4 | 0.00 | 0.43 | 0.33 | 91 | 1009.6 |
| 20260506194112 | 8 | 255 | 1.6 | 6.4 | 0.00 | 0.43 | 0.33 | 90 | 1009.4 |
| 20260506193108 | 9 | 187 | 1.6 | 9.7 | 0.00 | 0.46 | 0.33 | 90 | 1009.5 |
| 20260506192104 | 8 | 161 | 1.6 | 6.4 | 0.00 | 0.48 | 0.33 | 90 | 1009.2 |
| 20260506191104 | 8 | 161 | 1.6 | 6.4 | 0.00 | 0.48 | 0.33 | 90 | 1009.0 |
| 20260506190058 | 9 | 222 | 3.2 | 6.4 | 0.00 | 0.48 | 0.33 | 90 | 1009.0 |
| 20260506185057 | 9 | 211 | 3.2 | 11.3 | 0.00 | 0.48 | 0.33 | 89 | 1008.7 |
| 20260506184051 | 9 | 178 | 3.2 | 11.3 | 0.00 | 0.48 | 0.33 | 89 | 1008.7 |
| 20260506183047 | 9 | 159 | 3.2 | 12.9 | 0.00 | 0.48 | 0.33 | 89 | 1008.6 |
| 20260506182043 | 10 | 231 | 3.2 | 6.4 | 0.00 | 0.48 | 0.33 | 88 | 1008.4 |
| 20260506181040 | 10 | 259 | 1.6 | 6.4 | 0.00 | 0.48 | 0.33 | 88 | 1008.3 |
| 20260506180039 | 10 | 190 | 3.2 | 6.4 | 0.00 | 0.48 | 0.33 | 88 | 1008.3 |
| 20260506175034 | 10 | 161 | 3.2 | 17.7 | 0.00 | 0.48 | 0.33 | 87 | 1008.0 |
| 20260506174033 | 10 | 177 | 4.8 | 12.9 | 0.00 | 0.48 | 0.33 | 87 | 1008.1 |
| 20260506173026 | 10 | 161 | 3.2 | 11.3 | 0.00 | 0.48 | 0.33 | 87 | 1008.0 |
| 20260506172023 | 10 | 196 | 3.2 | 17.7 | 0.00 | 0.48 | 0.33 | 87 | 1007.8 |
| 20260506171022 | 10 | 171 | 3.2 | 17.7 | 0.00 | 0.48 | 0.33 | 88 | 1007.7 |
| 20260506170016 | 10 | 195 | 1.6 | 6.4 | 0.00 | 0.48 | 0.33 | 90 | 1007.6 |
| 20260506165116 | 10 | 176 | 1.6 | 6.4 | 0.00 | 0.48 | 0.33 | 89 | 1007.3 |
| 20260506164110 | 10 | 151 | 3.2 | 9.7 | 0.00 | 0.48 | 0.33 | 89 | 1007.3 |
| 20260506163109 | 10 | 235 | 4.8 | 14.5 | 0.00 | 0.48 | 0.33 | 89 | 1007.4 |
| 20260506162103 | 10 | 194 | 3.2 | 6.4 | 0.00 | 0.48 | 0.33 | 89 | 1007.6 |
| 20260506161103 | 10 | 226 | 3.2 | 6.4 | 0.00 | 0.51 | 0.33 | 90 | 1007.6 |
| 20260506160056 | 10 | 210 | 3.2 | 11.3 | 0.15 | 0.51 | 0.33 | 88 | 1007.4 |
| 20260506155052 | 10 | 196 | 4.8 | 12.9 | 0.15 | 0.51 | 0.33 | 90 | 1007.3 |
| 20260506154051 | 10 | 208 | 3.2 | 11.3 | 0.15 | 0.51 | 0.33 | 92 | 1007.2 |
| 20260506153045 | 10 | 184 | 3.2 | 12.9 | 0.15 | 0.51 | 0.33 | 93 | 1007.1 |
| 20260506152041 | 11 | 181 | 3.2 | 22.5 | 0.15 | 0.51 | 0.33 | 93 | 1006.9 |
| 20260506151038 | 10 | 153 | 4.8 | 22.5 | 0.15 | 0.51 | 0.33 | 93 | 1006.5 |
| 20260506150034 | 13 | 226 | 6.4 | 17.7 | 0.03 | 0.36 | 0.18 | 80 | 1006.2 |
| 20260506145034 | 16 | 163 | 0.0 | 3.2 | 0.03 | 0.36 | 0.18 | 73 | 1004.7 |
| 20260506144028 | 18 | 180 | 0.0 | 3.2 | 0.10 | 0.36 | 0.18 | 67 | 1004.7 |
| 20260506143024 | 17 | 203 | 1.6 | 3.2 | 0.15 | 0.36 | 0.18 | 67 | 1004.8 |
| 20260506142024 | 17 | 180 | 0.0 | 3.2 | 0.18 | 0.36 | 0.18 | 70 | 1004.9 |
| 20260506141017 | 16 | 158 | 1.6 | 6.4 | 0.18 | 0.36 | 0.18 | 78 | 1004.9 |
| 20260506140114 | 15 | 151 | 0.0 | 3.2 | 0.15 | 0.33 | 0.15 | 89 | 1004.9 |
| 20260506135114 | 13 | 68 | 1.6 | 3.2 | 0.15 | 0.33 | 0.15 | 89 | 1004.9 |
| 20260506134107 | 13 | 150 | 4.8 | 9.7 | 0.10 | 0.28 | 0.10 | 82 | 1005.5 |
| 20260506133104 | 15 | 190 | 1.6 | 3.2 | 0.03 | 0.20 | 0.03 | 79 | 1005.4 |
| 20260506132101 | 16 | 185 | 1.6 | 3.2 | 0.00 | 0.18 | 0.00 | 72 | 1005.4 |
| 20260506131105 | 16 | 180 | 1.6 | 3.2 | 0.00 | 0.18 | 0.00 | 65 | 1005.4 |
| 20260506130053 | 16 | 246 | 1.6 | 3.2 | 0.00 | 0.18 | 0.00 | 64 | 1005.2 |
| 20260506125050 | 16 | 255 | 1.6 | 3.2 | 0.00 | 0.18 | 0.00 | 62 | 1005.1 |
| 20260506124046 | 17 | 0 | 0.0 | 3.2 | 0.00 | 0.18 | 0.00 | 62 | 1004.8 |